Location: Malvern Link
(52.1333°N, 2.3000°W)
Time: 15:55:13
(UTC+00:00)

Cosmos 1269 Rocket - Pass Details

Date: 18 September 2020
Orbit: 772 x 780 km, 74.1° (Epoch: 21 October)

Event Time Altitude Azimuth Distance (km) Brightness Sun altitude
Rises 21:13:35 0° 332° (NNW) 3,275 8.4 -25.7°
Reaches altitude 10° 21:16:01 10° 328° (NNW) 2,344 7.5 -26.0°
Maximum altitude 21:21:12 55° 252° (WSW) 939 4.5 -26.6°
Enters shadow 21:21:56 50° 221° (SW) 989 4.4 -26.7°
